Weather History for Bad Axe, MI

Change the Weather History Date:

Thursday, February 7, 2013

  Actual Average (KP58) Record (KP58)
Temperature  
Mean Temperature 26 °F -  
Max Temperature 28 °F 29 °F 48 °F (2009)
Min Temperature 23 °F 18 °F 1 °F (2007)
Degree Days  
Heating Degree Days 40    
Moisture  
Dew Point 23 °F    
Average Humidity 89    
Maximum Humidity 94    
Minimum Humidity 79    
Precipitation  
Precipitation 0.00 in - - ()
Sea Level Pressure  
Sea Level Pressure 30.15 in    
Wind  
Wind Speed 8 mph (SE)    
Max Wind Speed 12 mph    
Max Gust Speed 20 mph    
Visibility 5 miles    
Events Snow    
Averages and records for this station are not official NWS values.
T = Trace of Precipitation, MM = Missing Value Source: NWS Daily Summary

Daily Weather History Graph

Daily Weather History Graph

Search for Another Location

Airport:

Trip Planner

Search our weather history database for the weather conditions in past years. The results will help you decide how hot, cold, wet, or windy it might be!

Date:

Astronomy

Feb. 07, 2013 Rise Set
Actual Time 7:41 AM EST 5:51 PM EST
Civil Twilight 7:11 AM EST 6:21 PM EST
Nautical Twilight 6:37 AM EST 6:55 PM EST
Astronomical Twilight 6:03 AM EST 7:29 PM EST
Moon 5:23 AM EST (2/7) 3:11 PM EST (2/7)
Length of Visible Light 11h 10m
Length of Day
10h 10m
Waning Crescent, 9% of the Moon is Illuminated
Feb 7
Waning Crescent
Feb 10
New
Feb 17
First Quarter
Feb 25
Full
Mar 4
Last Quarter

Hourly Weather History & Observations

Time (EST) Temp. Windchill Dew Point Humidity Pressure Visibility Wind Dir Wind Speed Gust Speed Precip Events Conditions
12:13 AM 23.0 °F 14.7 °F 18.7 °F 84% 30.25 in 10.0 mi South 6.9 mph - N/A   Overcast
12:34 AM 23.4 °F 13.5 °F 18.5 °F 82% 30.24 in 10.0 mi South 9.2 mph - N/A   Overcast
12:54 AM 23.7 °F 14.0 °F 18.1 °F 79% 30.25 in 10.0 mi South 9.2 mph - N/A   Overcast
1:13 AM 23.0 °F 14.7 °F 19.2 °F 85% 30.25 in 3.0 mi South 6.9 mph - N/A Snow Light Snow
1:34 AM 23.0 °F 14.7 °F 20.3 °F 89% 30.26 in 3.0 mi South 6.9 mph - N/A Snow Light Snow
1:54 AM 23.0 °F 15.8 °F 20.3 °F 89% 30.26 in 10.0 mi South 5.8 mph - N/A   Overcast
2:13 AM 23.0 °F 13.1 °F 19.9 °F 88% 30.26 in 7.0 mi South 9.2 mph - N/A Snow Light Snow
2:34 AM 23.0 °F 13.1 °F 19.4 °F 86% 30.26 in 4.0 mi South 9.2 mph - N/A Snow Light Snow
2:54 AM 23.0 °F 14.7 °F 20.1 °F 89% 30.25 in 4.0 mi South 6.9 mph - N/A Snow Light Snow
3:13 AM 23.0 °F 13.9 °F 20.3 °F 89% 30.24 in 4.0 mi South 8.1 mph - N/A Snow Light Snow
3:34 AM 23.5 °F 13.0 °F 20.7 °F 89% 30.23 in 5.0 mi SSE 10.4 mph - N/A Snow Light Snow
3:54 AM 23.5 °F 14.5 °F 20.8 °F 89% 30.22 in 4.0 mi SSE 8.1 mph - N/A Snow Light Snow
4:14 AM 23.7 °F 15.6 °F 21.0 °F 89% 30.23 in 4.0 mi SSE 6.9 mph - N/A Snow Light Snow
4:34 AM 23.7 °F 15.6 °F 21.2 °F 90% 30.23 in 2.0 mi SSE 6.9 mph - N/A Snow Light Snow
4:54 AM 23.7 °F 14.7 °F 21.2 °F 90% 30.23 in 2.5 mi South 8.1 mph - N/A Snow Light Snow
5:14 AM 23.5 °F 16.4 °F 21.2 °F 91% 30.23 in 2.5 mi SSE 5.8 mph - N/A Snow Light Snow
5:34 AM 23.4 °F 15.2 °F 21.0 °F 91% 30.23 in 2.5 mi SSE 6.9 mph - N/A Snow Light Snow
5:54 AM 23.4 °F 16.2 °F 21.0 °F 91% 30.23 in 2.5 mi SE 5.8 mph - N/A Snow Light Snow
6:14 AM 23.0 °F 14.7 °F 20.7 °F 91% 30.22 in 2.5 mi SE 6.9 mph - N/A Snow Light Snow
6:34 AM 23.0 °F 17.0 °F 20.7 °F 91% 30.22 in 2.0 mi SE 4.6 mph - N/A Snow Light Snow
6:54 AM 23.0 °F 17.0 °F 20.8 °F 91% 30.22 in 3.0 mi SE 4.6 mph - N/A Snow Light Snow
7:14 AM 23.0 °F 17.0 °F 20.8 °F 91% 30.22 in 2.5 mi SE 4.6 mph - N/A Snow Light Snow
7:34 AM 23.0 °F 15.8 °F 20.8 °F 91% 30.22 in 2.5 mi SE 5.8 mph - N/A Snow Light Snow
7:54 AM 23.4 °F 18.9 °F 21.0 °F 91% 30.23 in 2.5 mi SE 3.5 mph - N/A Snow Light Snow
8:14 AM 23.7 °F 17.8 °F 21.2 °F 90% 30.23 in 2.0 mi SE 4.6 mph - N/A Snow Light Snow
8:34 AM 24.4 °F 17.5 °F 22.1 °F 91% 30.23 in 3.0 mi SE 5.8 mph - N/A Snow Light Snow
8:54 AM 24.8 °F 19.1 °F 22.5 °F 91% 30.23 in 5.0 mi SE 4.6 mph - N/A Snow Light Snow
9:14 AM 25.7 °F 18.0 °F 23.0 °F 89% 30.23 in 3.0 mi SSE 6.9 mph - N/A Snow Light Snow
9:34 AM 26.2 °F 18.6 °F 23.4 °F 89% 30.23 in 1.8 mi SE 6.9 mph - N/A Snow Light Snow
9:54 AM 26.6 °F 17.5 °F 23.5 °F 88% 30.23 in 3.0 mi SE 9.2 mph - N/A Snow Light Snow
10:14 AM 27.0 °F 19.5 °F 23.5 °F 87% 30.23 in 3.0 mi SE 6.9 mph - N/A Snow Light Snow
10:34 AM 27.1 °F 18.9 °F 23.7 °F 87% 30.21 in 2.0 mi SE 8.1 mph - N/A Snow Light Snow
10:54 AM 27.3 °F 19.1 °F 23.9 °F 87% 30.21 in 3.0 mi SE 8.1 mph - N/A Snow Light Snow
11:14 AM 27.3 °F 20.9 °F 23.9 °F 87% 30.21 in 2.5 mi ESE 5.8 mph - N/A Snow Light Snow
11:34 AM 27.5 °F 21.1 °F 24.1 °F 87% 30.21 in 1.0 mi ESE 5.8 mph - N/A Snow Light Snow
11:54 AM 27.5 °F 20.2 °F 24.6 °F 89% 30.20 in 1.8 mi ESE 6.9 mph - N/A Snow Light Snow
12:14 PM 28.2 °F 20.2 °F 24.8 °F 87% 30.20 in 7.0 mi ESE 8.1 mph - N/A   Overcast
12:34 PM 28.4 °F 19.7 °F 24.8 °F 86% 30.18 in 10.0 mi ESE 9.2 mph - N/A   Overcast
12:54 PM 28.9 °F 21.1 °F 24.8 °F 84% 30.16 in 10.0 mi ESE 8.1 mph - N/A   Overcast
1:14 PM 28.9 °F 20.4 °F 24.8 °F 84% 30.16 in 10.0 mi ESE 9.2 mph - N/A   Overcast
1:35 PM 28.8 °F 20.2 °F 24.3 °F 83% 30.15 in 10.0 mi ESE 9.2 mph 16.1 mph N/A   Overcast
1:54 PM 28.8 °F 22.6 °F 24.3 °F 83% 30.15 in 4.0 mi ESE 5.8 mph - N/A Snow Light Snow
2:14 PM 28.2 °F 23.1 °F 24.6 °F 86% 30.14 in 1.0 mi ESE 4.6 mph - N/A Snow Light Snow
2:35 PM 28.2 °F 20.2 °F 24.8 °F 87% 30.12 in 1.8 mi ESE 8.1 mph - N/A Snow Light Snow
2:54 PM 28.2 °F 20.2 °F 24.8 °F 87% 30.12 in 4.0 mi ESE 8.1 mph - N/A Snow Light Snow
3:14 PM 28.2 °F 19.5 °F 24.8 °F 87% 30.11 in 2.5 mi ESE 9.2 mph - N/A Snow Light Snow
3:35 PM 28.2 °F 20.2 °F 25.3 °F 89% 30.10 in 2.0 mi ESE 8.1 mph 16.1 mph N/A Snow Light Snow
3:54 PM 28.2 °F 18.9 °F 25.5 °F 90% 30.10 in 2.5 mi ESE 10.4 mph - N/A Snow Light Snow
4:14 PM 28.2 °F 20.2 °F 25.3 °F 89% 30.09 in 10.0 mi ESE 8.1 mph 16.1 mph N/A   Overcast
4:35 PM 28.2 °F 19.5 °F 25.3 °F 89% 30.08 in 10.0 mi East 9.2 mph 17.3 mph N/A   Overcast
4:54 PM 28.4 °F 19.7 °F 25.0 °F 87% 30.07 in 10.0 mi East 9.2 mph - N/A   Overcast
5:14 PM 28.9 °F 19.8 °F 24.6 °F 84% 30.06 in 10.0 mi East 10.4 mph 17.3 mph N/A   Overcast
5:35 PM 28.6 °F 20.7 °F 24.6 °F 85% 30.06 in 10.0 mi ESE 8.1 mph 18.4 mph N/A   Overcast
5:54 PM 28.4 °F 20.4 °F 25.2 °F 88% 30.05 in 10.0 mi East 8.1 mph 17.3 mph N/A   Overcast
6:14 PM 28.4 °F 19.7 °F 25.3 °F 88% 30.05 in 10.0 mi East 9.2 mph 17.3 mph N/A   Overcast
6:34 PM 28.4 °F 19.7 °F 25.5 °F 89% 30.05 in 10.0 mi ESE 9.2 mph 17.3 mph N/A   Overcast
6:54 PM 28.8 °F 20.2 °F 25.7 °F 88% 30.05 in 10.0 mi ESE 9.2 mph - N/A   Overcast
7:15 PM 28.8 °F 20.9 °F 26.1 °F 90% 30.05 in 10.0 mi ESE 8.1 mph - N/A   Overcast
7:34 PM 28.8 °F 20.9 °F 26.1 °F 90% 30.04 in 10.0 mi ESE 8.1 mph - N/A   Overcast
7:54 PM 28.6 °F 18.7 °F 25.9 °F 90% 30.03 in 7.0 mi ESE 11.5 mph 19.6 mph N/A Snow Light Snow
8:15 PM 28.4 °F 22.2 °F 25.7 °F 90% 30.02 in 3.0 mi ESE 5.8 mph - N/A Snow Light Snow
8:34 PM 28.2 °F 21.0 °F 25.5 °F 90% 30.02 in 1.5 mi East 6.9 mph - N/A Snow Light Snow
8:55 PM 28.0 °F 18.6 °F 25.7 °F 91% 30.01 in 1.2 mi East 10.4 mph - N/A Snow Light Snow
9:14 PM 28.0 °F 20.0 °F 25.7 °F 91% 30.01 in 1.5 mi East 8.1 mph - N/A Snow Light Snow
9:34 PM 27.9 °F 21.5 °F 25.7 °F 92% 30.00 in 0.8 mi East 5.8 mph - N/A Snow Snow
9:55 PM 27.9 °F 22.6 °F 26.1 °F 93% 30.00 in 0.8 mi ESE 4.6 mph - N/A Snow Snow
10:14 PM 28.0 °F 20.0 °F 26.4 °F 94% 29.99 in 0.8 mi East 8.1 mph - N/A Snow Snow
10:34 PM 28.0 °F 18.6 °F 26.4 °F 94% 29.99 in 0.8 mi East 10.4 mph - N/A Snow Snow
10:54 PM 27.7 °F 17.6 °F 26.2 °F 94% 29.98 in 0.8 mi East 11.5 mph 16.1 mph N/A Snow Snow
11:13 PM 27.7 °F 18.8 °F 26.2 °F 94% 29.97 in 2.0 mi East 9.2 mph - N/A Snow Light Snow
11:34 PM 27.9 °F 21.5 °F 26.4 °F 94% 29.97 in 1.0 mi East 5.8 mph - N/A Snow Snow
11:54 PM 27.9 °F 20.6 °F 26.4 °F 94% 29.97 in 0.8 mi East 6.9 mph - N/A Snow Heavy Snow